Temp
-11 -11 -11 -11 -11 -11 -11 -10 -11 -11 -10 -10 -10 -10 -11 -11 -11 -11 -11 -11 -11 -11 -11 -11 -11 -11 -11 -11 -11 -11 -11 -11 -11 -11 -11 -11 -11 -11 -11 -11 -11 -11 -11 -11
-12 -11 -12 -11 -11 -11 -11 -11 -11 -11 -11 -11 -10 -10 -11 -11 -11 -11 -11 -11 -11 -11 -11 -11 -11 -11 -11 -11 -11 -11 -11 -11 -11 -11 -11 -11 -11 -11 -11 -11 -12 -11 -12 -12
-12 -12 -12 -11 -11 -11 -11 -11 -11 -11 -11 -10 -10 -10 -11 -11 -11 -11 -11 -11 -11 -11 -11 -11 -11 -11 -11 -11 -11 -11 -11 -11 -11 -11 -11 -11 -11 -11 -11 -12 -12 -12 -12 -12
-12 -12 -12 -12 -11 -11 -11 -11 -11 -11 -11 -10 -10 -10 -11 -11 -11 -11 -11 -11 -11 -11 -11 -11 -11 -11 -11 -11 -11 -11 -11 -11 -11 -11 -11 -11 -11 -11 -12 -11 -12 -12 -12 -12
-12 -12 -12 -12 -12 -12 -11 -11 -11 -11 -11 -11 -10 -10 -10 -11 -11 -11 -11 -11 -11 -11 -11 -11 -11 -11 -11 -11 -11 -11 -11 -11 -11 -11 -11 -11 -11 -11 -11 -11 -11 -12 -12 -12
-13 -13 -12 -12 -12 -12 -12 -12 -12 -11 -11 -11 -11 -10 -10 -10 -11 -11 -11 -11 -11 -11 -11 -11 -11 -11 -11 -11 -12 -11 -11 -11 -11 -11 -11 -11 -11 -11 -11 -11 -11 -12 -12 -12
-13 -13 -12 -12 -12 -12 -12 -12 -12 -12 -11 -11 -10 -10 -10 -11 -11 -11 -11 -11 -11 -11 -11 -11 -11 -11 -11 -12 -12 -12 -12 -12 -11 -11 -11 -11 -12 -11 -12 -12 -12 -12 -12 -12
-13 -13 -13 -13 -13 -13 -13 -13 -12 -12 -12 -11 -11 -11 -10 -11 -11 -11 -11 -11 -11 -11 -11 -11 -11 -11 -11 -11 -12 -12 -12 -12 -12 -12 -12 -12 -12 -12 -12 -12 -12 -12 -12 -12
-13 -13 -13 -13 -13 -14 -13 -13 -13 -12 -12 -12 -11 -11 -11 -11 -11 -11 -11 -11 -11 -11 -11 -11 -11 -12 -12 -12 -12 -12 -12 -12 -12 -12 -12 -12 -12 -12 -12 -13 -13 -13 -13 -13
-14 -14 -14 -14 -14 -14 -13 -13 -14 -13 -13 -12 -11 -11 -12 -12 -12 -12 -12 -12 -12 -12 -11 -12 -12 -12 -12 -12 -12 -12 -12 -13 -13 -13 -13 -13 -13 -13 -13 -13 -14 -14 -14 -14
-15 -14 -14 -14 -14 -14 -14 -13 -14 -14 -14 -13 -12 -12 -12 -12 -12 -13 -13 -13 -13 -13 -12 -13 -13 -13 -13 -13 -13 -13 -13 -13 -13 -13 -13 -13 -13 -14 -14 -14 -15 -15 -15 -15
-15 -15 -15 -14 -15 -15 -15 -15 -15 -15 -14 -14 -13 -13 -13 -13 -13 -14 -14 -14 -14 -14 -14 -14 -14 -14 -14 -14 -13 -13 -13 -13 -13 -14 -13 -13 -13 -13 -14 -15 -15 -15 -15 -15
-16 -16 -16 -16 -15 -15 -15 -15 -15 -15 -15 -14 -14 -13 -14 -14 -15 -15 -14 -14 -14 -15 -15 -15 -15 -15 -15 -14 -14 -14 -14 -14 -14 -14 -14 -14 -14 -14 -14 -14 -14 -15 -15 -15
-17 -17 -16 -16 -16 -16 -16 -16 -16 -16 -16 -15 -15 -15 -15 -15 -16 -16 -16 -15 -15 -15 -16 -16 -15 -16 -16 -16 -16 -16 -15 -15 -15 -15 -15 -14 -14 -14 -14 -14 -13 -13 -14 -14
-17 -17 -17 -17 -17 -17 -17 -17 -17 -17 -16 -16 -15 -16 -16 -16 -16 -16 -16 -16 -16 -16 -16 -15 -15 -15 -15 -15 -15 -15 -15 -15 -15 -15 -15 -15 -15 -15 -15 -14 -14 -14 -14 -15
-18 -18 -18 -18 -17 -17 -17 -17 -16 -17 -16 -16 -16 -16 -16 -17 -17 -17 -17 -16 -16 -16 -16 -15 -15 -15 -15 -15 -15 -15 -15 -15 -15 -15 -14 -14 -14 -15 -15 -15 -15 -15 -16 -16
-18 -18 -18 -18 -18 -18 -17 -16 -17 -17 -17 -17 -17 -16 -16 -17 -17 -17 -16 -16 -16 -16 -15 -15 -15 -15 -15 -15 -15 -15 -15 -15 -15 -15 -15 -15 -15 -15 -15 -15 -16 -16 -16 -17
-18 -18 -19 -18 -18 -18 -16 -16 -18 -18 -18 -18 -17 -17 -17 -17 -17 -17 -17 -16 -16 -15 -15 -15 -15 -14 -15 -15 -15 -15 -15 -15 -15 -16 -16 -16 -17 -17 -17 -17 -18 -18 -18 -19
-19 -19 -19 -19 -19 -18 -17 -17 -18 -18 -18 -19 -18 -18 -18 -17 -17 -17 -17 -17 -17 -16 -16 -16 -16 -16 -16 -16 -15 -16 -16 -17 -17 -18 -18 -18 -18 -18 -19 -19 -19 -20 -20 -20
-19 -19 -21 -19 -19 -19 -17 -19 -18 -19 -19 -19 -20 -20 -20 -19 -19 -19 -18 -18 -19 -18 -18 -17 -17 -17 -17 -18 -17 -18 -18 -18 -19 -19 -19 -20 -20 -20 -20 -21 -21 -21 -21 -21
-22 -21 -23 -24 -23 -20 -19 -19 -20 -21 -19 -20 -21 -21 -20 -20 -20 -20 -20 -20 -20 -20 -20 -20 -20 -20 -20 -20 -19 -19 -20 -20 -20 -21 -21 -21 -21 -21 -21 -21 -21 -21 -21 -21
-23 -23 -23 -23 -24 -22 -20 -22 -22 -22 -22 -21 -21 -21 -21 -21 -21 -21 -21 -21 -21 -21 -21 -21 -21 -21 -21 -22 -21 -21 -22 -22 -22 -22 -21 -21 -21 -22 -22 -22 -22 -22 -22 -22
-23 -23 -23 -23 -23 -23 -22 -22 -22 -22 -22 -22 -22 -22 -22 -22 -22 -22 -22 -22 -22 -22 -22 -22 -22 -22 -22 -22 -22 -22 -22 -22 -22 -22 -22 -22 -22 -23 -23 -23 -23 -23 -23 -23
-23 -23 -23 -23 -23 -23 -23 -23 -23 -23 -23 -23 -23 -23 -23 -22 -22 -22 -22 -22 -22 -22 -22 -22 -22 -22 -22 -23 -23 -23 -23 -22 -22 -23 -23 -23 -23 -24 -24 -24 -24 -24 -24 -24
-23 -23 -23 -23 -23 -23 -23 -23 -24 -24 -23 -23 -23 -23 -23 -23 -23 -23 -23 -23 -23 -23 -23 -23 -23 -23 -23 -23 -23 -24 -24 -24 -24 -24 -24 -24 -24 -25 -25 -25 -25 -25 -25 -25
-23 -23 -24 -24 -24 -24 -24 -24 -24 -24 -24 -24 -24 -24 -24 -24 -24 -24 -24 -24 -24 -24 -24 -24 -24 -24 -24 -24 -24 -25 -25 -25 -25 -25 -25 -25 -25 -25 -25 -26 -26 -26 -26 -26
Height
5795 5800 5806 5808 5810 5813 5817 5820 5823 5826 5829 5831 5833 5836 5837 5838 5843 5845 5846 5848 5849 5850 5849 5851 5850 5850 5852 5853 5854 5853 5853 5852 5853 5853 5853 5852 5852 5851 5849 5847 5845 5843 5842 5839
5790 5795 5797 5801 5805 5809 5813 5816 5819 5821 5823 5825 5827 5832 5833 5833 5837 5839 5841 5842 5842 5843 5844 5845 5846 5847 5848 5849 5849 5850 5849 5848 5847 5848 5847 5848 5846 5846 5844 5842 5839 5837 5835 5834
5783 5788 5791 5796 5800 5803 5807 5810 5812 5814 5816 5818 5821 5827 5828 5829 5831 5832 5833 5834 5835 5837 5839 5839 5840 5841 5841 5842 5842 5843 5843 5843 5843 5842 5842 5841 5840 5839 5838 5835 5833 5831 5829 5827
5775 5780 5785 5790 5794 5797 5800 5803 5806 5808 5810 5813 5817 5819 5824 5825 5825 5824 5826 5828 5830 5831 5832 5832 5833 5834 5835 5835 5836 5836 5837 5838 5837 5836 5836 5834 5833 5833 5831 5829 5827 5825 5822 5819
5772 5775 5780 5784 5787 5789 5793 5795 5799 5802 5804 5807 5811 5811 5817 5819 5818 5818 5819 5820 5822 5824 5825 5826 5826 5827 5828 5829 5829 5829 5829 5830 5829 5828 5829 5827 5826 5824 5823 5820 5818 5816 5813 5811
5763 5767 5771 5775 5778 5781 5785 5788 5791 5794 5797 5801 5803 5805 5807 5809 5811 5812 5812 5813 5814 5816 5817 5817 5818 5819 5820 5820 5820 5821 5821 5821 5820 5820 5819 5818 5817 5815 5814 5812 5809 5806 5804 5802
5755 5759 5764 5768 5771 5773 5778 5781 5784 5788 5789 5793 5794 5798 5798 5797 5802 5803 5805 5807 5807 5808 5808 5810 5811 5810 5810 5810 5811 5811 5812 5812 5812 5811 5810 5808 5807 5805 5803 5801 5799 5796 5793 5791
5745 5750 5756 5760 5763 5767 5769 5772 5775 5777 5780 5786 5786 5788 5788 5787 5790 5792 5795 5797 5798 5800 5800 5800 5801 5801 5802 5802 5802 5802 5802 5802 5801 5799 5797 5796 5794 5793 5792 5789 5787 5786 5783 5780
5735 5739 5744 5748 5750 5754 5759 5763 5766 5768 5771 5774 5778 5780 5779 5779 5780 5780 5785 5787 5787 5788 5789 5791 5791 5792 5791 5791 5790 5790 5789 5789 5788 5787 5785 5783 5782 5780 5779 5776 5775 5773 5771 5768
5722 5728 5732 5735 5739 5743 5748 5753 5753 5757 5761 5764 5767 5769 5769 5770 5771 5770 5769 5773 5776 5777 5778 5778 5779 5779 5779 5779 5778 5778 5777 5776 5775 5774 5773 5771 5770 5768 5766 5764 5762 5760 5757 5754
5711 5715 5720 5722 5728 5733 5736 5739 5742 5746 5749 5752 5757 5759 5758 5760 5761 5761 5759 5760 5763 5766 5767 5767 5767 5767 5766 5766 5767 5766 5765 5764 5763 5761 5759 5756 5755 5753 5752 5750 5747 5745 5742 5740
5699 5701 5705 5712 5716 5719 5723 5727 5730 5731 5738 5741 5744 5748 5748 5747 5748 5748 5752 5751 5751 5751 5753 5755 5756 5755 5753 5753 5754 5753 5751 5750 5749 5747 5745 5743 5740 5738 5737 5735 5732 5730 5728 5725
5686 5686 5691 5696 5703 5707 5710 5716 5719 5722 5725 5730 5733 5737 5736 5737 5737 5737 5740 5740 5739 5739 5738 5738 5739 5740 5741 5741 5740 5739 5738 5737 5735 5734 5733 5730 5727 5725 5723 5721 5718 5715 5713 5710
5672 5677 5681 5688 5695 5699 5702 5707 5710 5712 5713 5720 5724 5725 5724 5725 5727 5724 5726 5728 5727 5726 5725 5725 5725 5725 5726 5726 5726 5725 5724 5723 5721 5719 5717 5716 5713 5711 5708 5705 5702 5700 5697 5695
5662 5667 5672 5675 5678 5682 5688 5692 5695 5697 5702 5703 5711 5712 5714 5715 5712 5712 5712 5712 5712 5712 5711 5711 5712 5711 5710 5710 5709 5709 5709 5707 5706 5704 5701 5699 5696 5693 5689 5686 5684 5681 5678 5674
5649 5655 5659 5663 5665 5669 5673 5679 5682 5684 5686 5690 5695 5703 5702 5699 5699 5697 5697 5697 5698 5698 5697 5697 5697 5696 5695 5694 5692 5690 5688 5686 5684 5681 5679 5677 5676 5674 5670 5666 5662 5658 5654 5650
5637 5642 5645 5649 5652 5654 5659 5668 5668 5672 5675 5677 5680 5692 5688 5685 5685 5683 5682 5683 5683 5682 5682 5681 5680 5678 5676 5675 5674 5671 5668 5666 5664 5660 5657 5653 5651 5649 5643 5641 5638 5636 5634 5630
5626 5629 5632 5635 5637 5639 5656 5656 5658 5658 5661 5662 5668 5672 5672 5671 5671 5668 5667 5667 5667 5667 5666 5664 5662 5659 5656 5655 5654 5652 5647 5645 5642 5639 5637 5633 5630 5627 5622 5618 5616 5613 5610 5607
5614 5616 5617 5618 5622 5632 5643 5643 5644 5643 5647 5650 5654 5653 5655 5656 5655 5655 5649 5648 5649 5649 5648 5647 5645 5643 5639 5637 5635 5632 5627 5624 5621 5619 5616 5612 5608 5607 5604 5601 5597 5593 5591 5589
5599 5601 5602 5608 5609 5618 5633 5629 5626 5624 5627 5638 5633 5635 5637 5639 5639 5639 5633 5633 5632 5630 5628 5628 5627 5623 5620 5617 5615 5612 5608 5603 5601 5597 5594 5590 5586 5584 5581 5578 5576 5574 5570 5568
5588 5588 5590 5594 5595 5604 5614 5609 5608 5606 5624 5616 5615 5616 5618 5622 5624 5623 5618 5617 5615 5613 5611 5608 5606 5604 5600 5596 5594 5590 5585 5580 5578 5575 5572 5568 5564 5561 5558 5557 5553 5551 5548 5546
5576 5578 5582 5582 5583 5588 5601 5593 5591 5593 5595 5600 5599 5601 5603 5605 5607 5607 5603 5599 5596 5595 5593 5590 5588 5586 5581 5574 5571 5569 5564 5560 5557 5553 5549 5545 5541 5536 5533 5530 5528 5526 5525 5523
5563 5568 5571 5573 5574 5580 5580 5576 5573 5574 5576 5579 5581 5581 5582 5583 5586 5588 5588 5584 5580 5577 5574 5569 5566 5565 5563 5555 5548 5546 5542 5537 5534 5530 5526 5521 5518 5512 5508 5506 5503 5501 5499 5497
5550 5553 5555 5558 5563 5564 5564 5562 5557 5557 5558 5560 5562 5562 5563 5564 5566 5565 5565 5565 5559 5555 5551 5547 5544 5542 5541 5534 5528 5521 5519 5516 5513 5509 5504 5500 5495 5491 5487 5483 5481 5479 5477 5475
5539 5540 5543 5542 5548 5546 5545 5544 5542 5542 5542 5543 5545 5544 5542 5541 5542 5539 5541 5540 5537 5533 5528 5522 5519 5516 5516 5512 5508 5500 5494 5491 5490 5487 5482 5478 5474 5469 5467 5463 5460 5457 5455 5454
5527 5530 5528 5529 5529 5527 5525 5525 5526 5528 5529 5528 5527 5525 5523 5521 5521 5519 5518 5515 5513 5511 5507 5501 5497 5493 5491 5488 5485 5478 5472 5469 5467 5465 5461 5457 5453 5450 5447 5445 5442 5438 5436 5434
Wind_Speed
38 37 35 32 34 35 34 31 30 29 29 28 28 27 27 28 27 27 27 26 24 25 26 22 22 23 21 20 21 21 20 22 21 20 20 21 20 20 22 22 22 23 23 24
37 35 35 36 35 35 33 31 29 29 30 31 29 26 28 29 27 28 28 28 29 28 29 28 27 25 24 25 25 24 24 25 24 24 24 23 25 23 25 26 27 28 29 28
37 36 36 35 35 35 33 32 30 31 32 32 30 27 28 29 29 29 30 31 31 31 31 31 29 28 28 29 30 30 29 28 27 28 28 28 28 29 29 30 31 32 34 33
40 39 38 36 35 35 34 32 32 32 32 33 30 29 25 27 29 31 31 31 31 33 34 33 32 31 30 31 32 33 33 32 32 33 32 34 35 33 34 35 36 37 39 39
40 39 37 36 34 35 34 34 34 35 34 32 31 34 28 26 28 30 32 32 32 33 35 35 35 35 34 34 36 37 37 38 38 38 37 38 39 40 40 41 41 43 44 44
44 42 41 39 39 38 37 36 36 35 34 34 33 34 35 33 32 31 32 33 34 34 36 37 37 37 38 39 40 40 41 42 43 44 44 44 44 45 45 45 47 47 48 49
50 48 45 43 42 41 40 39 38 37 37 37 38 36 38 40 37 37 36 36 36 37 39 39 40 41 42 43 43 44 45 46 47 48 49 49 50 51 51 51 51 51 51 52
53 52 50 47 45 44 43 43 43 44 43 42 42 40 42 44 43 40 41 41 40 40 41 43 44 45 45 46 48 48 48 50 51 51 52 53 55 54 54 55 56 56 56 54
54 54 53 50 49 49 49 48 47 48 48 49 47 46 47 47 48 48 43 44 45 46 46 45 46 46 48 48 49 51 52 53 53 55 56 56 57 57 55 54 53 53 54 55
57 56 55 53 53 53 53 51 51 52 52 53 53 52 53 50 50 53 53 48 47 48 49 49 49 48 50 52 52 51 51 51 53 53 54 54 55 54 53 52 51 52 54 56
57 58 58 58 58 56 55 55 55 54 54 55 55 56 57 57 55 53 53 51 49 50 50 51 51 51 51 53 53 52 52 53 53 53 54 53 52 52 52 51 50 51 51 52
55 60 60 57 56 55 55 55 56 56 54 54 54 55 55 56 55 54 52 52 52 49 49 49 50 52 54 54 54 55 56 56 57 57 57 57 57 57 55 53 55 56 58 58
55 58 57 57 57 56 57 57 56 55 55 55 55 58 57 55 52 51 52 54 54 54 51 50 51 51 50 51 53 53 53 52 53 53 53 54 56 57 58 58 59 60 60 62
54 59 62 63 60 59 58 57 55 54 56 56 55 53 54 52 48 50 50 48 49 49 52 53 54 54 53 53 52 53 55 57 59 61 61 62 63 63 64 66 68 69 70 70
58 56 54 53 54 53 51 52 53 57 58 58 56 54 51 49 49 50 52 53 55 58 60 60 61 62 63 63 64 65 66 67 68 70 71 72 74 75 75 76 77 78 79 79
52 53 54 53 56 58 57 55 55 56 57 58 57 53 50 54 55 57 59 61 63 66 68 69 69 69 70 71 73 75 76 77 77 78 79 80 80 79 80 79 79 78 78 77
54 54 56 57 58 59 60 62 61 59 59 58 58 54 57 59 60 63 65 67 71 72 71 72 72 74 76 77 78 79 80 81 81 82 83 83 83 84 84 85 81 80 78 74
62 56 55 60 62 64 60 60 59 59 61 61 61 62 64 66 67 69 74 76 74 73 73 75 76 77 78 79 80 82 82 83 84 84 84 83 82 81 81 81 80 76 76 72
59 56 58 61 61 62 61 67 66 66 64 62 63 65 66 69 73 74 74 74 74 75 76 78 78 79 81 83 84 85 85 84 83 83 82 80 79 78 75 73 72 72 71 69
74 72 61 66 65 68 64 64 67 67 70 64 61 61 62 65 67 67 70 70 71 74 76 78 80 81 83 84 85 85 86 86 85 84 83 80 77 77 76 73 71 70 69 70
58 60 55 52 54 63 65 65 63 60 62 61 60 62 64 65 65 67 71 72 73 74 75 78 79 80 81 82 84 85 84 84 84 84 84 84 84 83 81 78 76 74 72 69
50 50 52 54 54 61 63 60 65 65 65 65 67 67 66 67 67 68 70 72 73 74 74 76 77 78 80 82 84 84 84 85 86 86 86 86 86 86 85 84 82 80 78 76
53 52 54 56 57 55 58 62 64 66 67 67 68 70 71 72 72 73 73 75 77 79 80 82 83 83 83 85 86 86 84 83 80 78 77 76 75 75 75 76 77 77 75 75
57 58 59 59 59 60 61 63 66 66 67 67 68 69 70 70 71 72 73 73 75 76 77 78 78 77 75 75 77 79 81 81 80 79 79 78 76 74 72 71 70 69 68 69
59 59 57 57 53 56 58 60 63 65 67 68 69 71 72 74 74 76 76 77 77 78 78 79 79 79 78 78 78 79 79 78 77 77 76 75 75 75 73 71 68 67 65 65
50 50 53 54 57 60 63 65 68 69 70 72 73 75 77 78 78 78 78 78 77 77 77 78 78 77 76 75 75 76 78 77 76 74 73 72 72 70 69 67 66 65 64 62
Wind_Direction
221 221 224 226 226 227 230 232 236 240 243 245 245 245 249 250 249 249 252 251 248 246 250 251 250 246 246 248 246 250 258 265 272 276 283 279 286 288 291 290 291 292 296 298
222 222 223 225 228 230 231 235 240 244 246 248 248 247 251 254 252 252 252 252 250 248 252 253 252 256 253 250 251 254 256 262 270 276 279 282 283 286 287 286 286 289 290 294
223 224 226 227 228 230 232 236 238 242 245 246 247 244 247 252 255 254 250 248 250 251 250 252 252 253 254 251 251 253 256 261 265 268 274 277 277 279 283 284 284 288 290 292
224 225 227 228 230 231 233 236 240 244 247 250 252 247 243 248 252 252 255 253 250 252 252 253 253 252 251 251 254 257 261 264 265 268 269 274 277 280 280 281 284 285 289 292
230 230 230 231 232 233 234 237 241 244 247 249 252 257 244 242 246 251 253 253 252 253 254 255 254 254 255 255 254 255 259 262 265 268 270 273 276 279 280 282 284 285 286 289
234 233 232 233 235 236 236 239 243 244 248 251 250 253 255 251 247 246 250 254 254 252 251 252 254 255 255 256 257 258 260 263 266 268 271 273 274 276 278 280 283 284 284 286
235 236 237 237 238 240 241 242 246 248 248 251 253 252 257 259 254 253 251 249 250 254 257 255 255 255 257 258 260 261 262 263 266 269 272 273 274 276 277 278 278 280 280 282
235 236 238 240 242 244 245 245 246 249 250 251 254 255 254 259 260 256 255 255 254 253 252 255 257 259 260 261 262 264 266 266 265 266 268 270 271 274 275 276 277 278 278 279
239 240 240 240 241 242 244 247 249 249 251 251 253 255 258 260 263 265 258 255 256 255 255 254 254 256 257 259 261 262 263 265 266 266 267 268 270 273 274 275 276 277 277 276
239 240 241 241 242 244 246 246 247 250 251 253 255 254 256 258 260 263 267 264 259 257 258 260 260 260 258 258 260 262 265 267 268 270 271 273 274 276 276 276 275 274 273 274
240 241 240 242 243 244 244 246 247 248 249 253 255 256 256 257 258 260 264 267 267 263 262 263 264 265 265 265 266 266 268 269 270 270 271 272 273 274 274 274 272 272 273 273
239 241 241 242 242 242 243 243 244 245 247 249 251 253 257 259 260 261 262 265 269 270 269 266 264 265 267 268 269 269 269 269 269 270 271 273 274 274 275 277 278 278 278 277
234 236 237 239 240 240 242 244 245 248 249 251 251 255 255 259 263 266 266 267 270 272 273 273 271 267 265 263 263 265 266 268 269 270 272 275 276 277 277 277 278 280 281 282
236 239 242 246 250 249 250 250 250 250 251 253 255 255 257 259 261 264 266 266 267 269 270 272 273 272 273 271 270 270 272 274 275 276 276 275 275 275 277 278 278 278 279 279
234 234 236 240 243 245 246 247 246 247 248 249 250 249 252 256 258 260 262 266 269 270 270 270 270 271 271 273 274 275 275 276 276 277 278 278 278 279 279 280 279 279 279 279
239 243 240 242 244 245 247 249 249 248 248 249 248 247 247 249 254 258 263 268 273 275 274 272 272 272 274 275 276 277 278 279 280 280 280 280 279 278 278 279 281 282 283 283
224 223 230 231 233 232 239 246 248 246 245 246 248 249 250 254 258 263 266 271 276 277 275 274 274 275 276 276 277 278 280 281 281 282 283 282 282 283 284 284 285 285 285 284
223 225 227 230 230 234 241 242 244 247 248 251 252 253 254 257 262 267 270 274 275 276 275 274 274 275 276 277 278 278 280 281 282 283 284 286 287 287 288 289 289 287 287 285
216 219 223 225 224 235 240 244 249 255 258 264 264 266 266 266 267 271 273 274 275 275 275 276 276 277 278 279 280 281 283 284 284 285 285 286 286 286 286 285 285 286 283 282
240 244 253 249 253 250 248 257 260 263 263 267 268 268 268 268 269 271 272 274 275 276 277 278 279 280 280 280 281 282 283 285 286 287 287 287 287 287 287 286 284 284 283 281
248 252 256 257 258 257 256 260 263 265 268 268 268 269 271 271 272 272 273 274 275 275 277 278 280 281 282 283 283 283 284 285 286 286 287 287 286 285 284 282 281 281 281 279
251 252 255 257 259 261 264 267 268 268 267 266 268 271 271 271 271 271 273 275 277 278 280 280 281 281 282 283 283 284 284 284 284 284 284 283 283 282 282 281 280 279 278 278
247 250 254 256 260 261 263 266 269 270 272 273 274 274 275 276 276 276 276 277 278 278 279 279 280 280 280 281 282 282 283 283 283 284 284 284 284 283 283 282 281 280 279 278
249 253 255 259 261 264 265 266 269 271 272 273 274 275 277 278 279 279 279 278 278 279 279 279 279 279 280 280 282 283 283 284 284 284 284 284 283 283 284 285 284 283 282 281
251 253 257 258 261 263 265 266 268 270 273 277 279 281 283 284 284 284 283 282 281 281 281 282 282 283 283 283 284 284 284 284 284 284 284 284 284 284 284 284 284 284 284 284
249 253 257 260 261 263 265 267 271 273 276 278 280 281 282 282 283 282 282 282 283 282 282 283 284 285 285 284 284 284 283 284 284 284 285 284 284 283 282 283 283 284 284 286